This demonstration page uses our WeatherBlox Daily Observations layout. Learn more.

Hourly Observations for December 14, 2018

Temp ( °F °C ) Dew Point ( °F °C ) Humidity (%) Winds ( mph kmh ) Pressure ( in mb ) Visibility ( mi km ) Precip ( " mm )
12:15 am 00:15 Clear 25 -4 22 -5.5 89 89 NW 5 7 30.39 1029 10 16.0934 0 0
12:35 am 00:35 Clear 24 -4.2 22 -5.8 89 89 Calm 30.39 1029 10 16.0934 0 0
12:55 am 00:55 Clear 24 -4.6 21 -6.1 89 89 Calm 30.42 1030 10 16.0934 0 0
1:15 am 01:15 Clear 24 -4.2 22 -5.8 89 89 Calm 30.36 1028 10 16.0934 0 0
1:35 am 01:35 Clear 24 -4.7 21 -6.3 89 89 NW 3 6 30.39 1029 10 16.0934 0 0
1:55 am 01:55 Clear 23 -5.1 20 -6.5 90 90 WNW 3 6 30.39 1029 10 16.0934 0 0
2:15 am 02:15 Clear 23 -4.9 20 -6.7 87 87 WNW 3 6 30.39 1029 10 16.0934 0 0
2:35 am 02:35 Clear 22 -5.3 19 -7.3 86 86 WNW 3 6 30.39 1029 10 16.0934 0 0
2:55 am 02:55 Clear 22 -5.5 19 -7.5 86 86 WNW 7 11 30.39 1029 10 16.0934 0 0
3:15 am 03:15 Clear 21 -6 18 -7.6 89 89 WNW 5 7 30.39 1029 10 16.0934 0 0
3:35 am 03:35 Clear 22 -5.7 19 -7.5 87 87 WNW 7 11 30.39 1029 10 16.0934 0 0
3:55 am 03:55 Clear 22 -5.6 18 -7.6 86 86 WNW 5 7 30.39 1029 10 16.0934 0 0
4:15 am 04:15 Clear 21 -6.2 18 -8 87 87 WNW 3 6 30.39 1029 10 16.0934 0 0
4:35 am 04:35 Clear 22 -5.8 18 -7.6 87 87 W 7 11 30.39 1029 10 16.0934 0 0
4:55 am 04:55 Clear 22 -5.4 18 -7.6 85 85 W 5 7 30.39 1029 10 16.0934 0 0
5:15 am 05:15 Clear 23 -4.9 19 -7.3 83 83 W 6 9 30.39 1029 10 16.0934 0 0
5:35 am 05:35 Clear 23 -5.1 18 -7.9 81 81 W 3 6 30.39 1029 10 16.0934 0 0
5:55 am 05:55 Clear 21 -6.3 17 -8.6 84 84 W 5 7 30.39 1029 10 16.0934 0 0
6:15 am 06:15 Clear 19 -7.1 16 -8.8 88 88 Calm 30.39 1029 10 16.0934 0 0
6:35 am 06:35 Clear 22 -5.7 17 -8.2 83 83 W 6 9 30.39 1029 10 16.0934 0 0
6:55 am 06:55 Clear 20 -6.5 17 -8.5 86 86 Calm 30.42 1030 10 16.0934 0 0
7:15 am 07:15 Clear 19 -7.2 16 -8.8 88 88 W 5 7 30.45 1031 10 16.0934 0 0
7:35 am 07:35 Clear 19 -7.1 17 -8.6 89 89 WNW 6 9 30.42 1030 10 16.0934 0 0
7:55 am 07:55 Sunny 22 -5.5 18 -7.6 85 85 W 7 11 30.42 1030 10 16.0934 0 0
8:15 am 08:15 Sunny 23 -5 18 -7.7 82 82 W 7 11 30.42 1030 10 16.0934 0 0
8:35 am 08:35 Sunny 24 -4.2 19 -7.3 79 79 WNW 8 13 30.39 1029 10 16.0934 0 0
8:55 am 08:55 Sunny 25 -4 19 -7.1 79 79 WNW 6 9 30.39 1029 10 16.0934 0 0
9:15 am 09:15 Sunny 25 -4 20 -6.8 81 81 NW 9 15 30.39 1029 10 16.0934 0 0
9:35 am 09:35 Sunny 27 -2.8 22 -5.6 81 81 NW 8 13 30.39 1029 10 16.0934 0 0
9:55 am 09:55 Sunny 28 -2 23 -5 80 80 WNW 7 11 30.39 1029 10 16.0934 0 0
10:15 am 10:15 Sunny 30 -0.9 24 -4.4 77 77 WNW 9 15 30.36 1028 10 16.0934 0 0
10:35 am 10:35 Sunny 32 -0.1 25 -3.9 76 76 WNW 8 13 30.36 1028 10 16.0934 0 0
10:55 am 10:55 Sunny 33 0.3 26 -3.6 75 75 WNW 7 11 30.36 1028 10 16.0934 0 0
11:15 am 11:15 Sunny 34 0.9 26 -3.3 74 74 WNW 6 9 30.36 1028 10 16.0934 0 0
11:35 am 11:35 Sunny 35 1.7 27 -2.7 73 73 W 3 6 30.36 1028 10 16.0934 0 0
11:55 am 11:55 Sunny 36 2.3 28 -2.4 71 71 W 5 7 30.33 1027 10 16.0934 0 0
12:15 pm 12:15 Sunny 37 3 28 -2.4 68 68 WNW 6 9 30.3 1026 10 16.0934 0 0
12:35 pm 12:35 Sunny 38 3.5 29 -1.9 68 68 WNW 8 13 30.3 1026 10 16.0934 0 0
12:55 pm 12:55 Sunny 39 3.7 29 -1.4 70 70 W 8 13 30.3 1026 10 16.0934 0 0
1:15 pm 13:15 Sunny 40 4.5 31 -0.5 70 70 WNW 9 15 30.3 1026 10 16.0934 0 0
1:35 pm 13:35 Sunny 41 4.9 30 -1.2 65 65 WNW 7 11 30.27 1025 10 16.0934 0 0
1:55 pm 13:55 Sunny 42 5.5 31 -0.5 66 66 W 3 6 30.27 1025 10 16.0934 0 0
2:15 pm 14:15 Sunny 42 5.7 30 -0.9 63 63 WNW 3 6 30.27 1025 10 16.0934 0 0
2:35 pm 14:35 Sunny 43 6 30 -0.9 62 62 Calm 30.27 1025 10 16.0934 0 0
2:55 pm 14:55 Sunny 43 6.1 32 -0.1 65 65 NW 3 6 30.27 1025 10 16.0934 0 0
3:15 pm 15:15 Sunny 43 6.2 32 0.2 66 66 Calm 30.27 1025 10 16.0934 0 0
3:35 pm 15:35 Sunny 43 6.1 33 0.3 67 67 NW 3 6 30.27 1025 10 16.0934 0 0
3:55 pm 15:55 Sunny 43 6 33 0.5 68 68 NW 3 6 30.27 1025 10 16.0934 0 0
4:15 pm 16:15 Sunny 42 5.8 32 0.2 68 68 Calm 30.27 1025 10 16.0934 0 0
4:35 pm 16:35 Sunny 42 5.4 32 0.1 69 69 NW 3 6 30.27 1025 10 16.0934 0 0
4:55 pm 16:55 Sunny 40 4.4 32 -0.1 73 73 Calm 30.3 1026 10 16.0934 0 0
5:15 pm 17:15 Clear 38 3.4 31 -0.6 75 75 Calm 30.3 1026 10 16.0934 0 0
5:35 pm 17:35 Clear 37 2.8 31 -0.8 77 77 Calm 30.3 1026 10 16.0934 0 0
5:55 pm 17:55 Clear 35 1.6 30 -0.9 84 84 Calm 30.3 1026 10 16.0934 0 0
6:15 pm 18:15 Clear 36 2.2 32 -0.2 84 84 Calm 30.3 1026 10 16.0934 0 0
6:35 pm 18:35 Clear 34 1 30 -0.9 87 87 Calm 30.3 1026 10 16.0934 0 0
6:55 pm 18:55 Clear 33 0.3 31 -0.5 94 94 Calm 30.3 1026 10 16.0934 0 0
7:15 pm 19:15 Clear 31 -0.5 29 -1.8 91 91 Calm 30.3 1026 10 16.0934 0 0
7:35 pm 19:35 Clear 31 -0.4 30 -1.2 94 94 W 3 6 30.3 1026 10 16.0934 0 0
7:55 pm 19:55 Clear 31 -0.3 28 -2.3 87 87 Calm 30.3 1026 10 16.0934 0 0
8:15 pm 20:15 Clear 31 -0.7 28 -2 91 91 Calm 30.3 1026 10 16.0934 0 0
8:35 pm 20:35 Clear 29 -1.6 27 -2.6 93 93 Calm 30.3 1026 10 16.0934 0 0
8:55 pm 20:55 Clear 28 -2.1 27 -2.9 94 94 W 3 6 30.33 1027 10 16.0934 0 0
9:15 pm 21:15 Clear 29 -1.8 27 -2.7 94 94 Calm 30.33 1027 10 16.0934 0 0
9:35 pm 21:35 Clear 28 -2.5 26 -3.2 95 95 W 3 6 30.33 1027 10 16.0934 0 0
9:55 pm 21:55 Clear 28 -2.5 26 -3.2 95 95 W 3 6 30.33 1027 10 16.0934 0 0
10:15 pm 22:15 Clear 28 -2.3 26 -3.5 92 92 Calm 30.3 1026 10 16.0934 0 0
10:35 pm 22:35 Clear 27 -2.6 26 -3.6 93 93 Calm 30.33 1027 10 16.0934 0 0
10:55 pm 22:55 Clear 26 -3.6 24 -4.4 94 94 Calm 30.3 1026 10 16.0934 0 0
11:15 pm 23:15 Clear 26 -3.3 25 -3.7 97 97 W 3 6 30.3 1026 10 16.0934 0 0
11:35 pm 23:35 Clear 29 -1.9 26 -3.4 90 90 Calm 30.27 1025 10 16.0934 0 0
11:55 pm 23:55 Clear 28 -2.4 26 -3.6 92 92 Calm 30.3 1026 10 16.0934 0 0

Powered by AerisWeather